Location: Unspecified
(43.4680°N, 87.1740°E)
Time: 05:50:02
(UTC+00:00)

Cosmos 2228 - Pass Details

Date: 17 April 2021
Orbit: 587 x 619 km, 82.5° (Epoch: 17 May)

Event Time Altitude Azimuth Distance (km) Brightness Sun altitude
Rises 13:28:07 0° 179° (S) 2,868 6.3 -6.2°
Reaches altitude 10° 13:30:21 10° 176° (S) 1,964 5.4 -6.6°
Maximum altitude 13:34:39 65° 96° (E) 673 3.0 -7.3°
Drops below altitude 10° 13:38:57 10° 14° (NNE) 1,961 5.8 -8.0°
Sets 13:41:10 0° 12° (NNE) 2,864 6.6 -8.4°
